KLM1635 KPHX-KASE

Flight info

Callsign KLM1635
Flight time 1h 15m
Altitude 37000
Route JARPA TRRBO/N0462F360 SLIPY
Aircraft A321/M-SDE3FGHIRWY/LB1

Departure

Time 2026-04-30 13:04
Airport Phoenix Sky Harbor International Airport (KPHX)

Arrival

Time 2026-04-30 14:19
Airport Aspen-Pitkin County Airport (Sardy Field) (KASE)
Time Latitude Longitude Altitude Speed Heading
2026-04-30 12:56 33.43787 -112.00936 1130 ft 2 kts 103°
2026-04-30 12:56 33.43792 -112.00959 1128 ft 3 kts 108°
2026-04-30 12:56 33.43799 -112.00981 1135 ft 3 kts 110°
2026-04-30 12:56 33.43805 -112.01004 1133 ft 3 kts 95°
2026-04-30 12:57 33.43805 -112.01020 1133 ft 3 kts 34°
2026-04-30 12:57 33.43804 -112.01023 1133 ft 0 kts
2026-04-30 13:00 33.43805 -112.01023 1130 ft 2 kts
2026-04-30 13:00 33.43837 -112.01023 1133 ft 7 kts
2026-04-30 13:00 33.43891 -112.01049 1131 ft 8 kts 309°
2026-04-30 13:01 33.43906 -112.01112 1132 ft 7 kts 285°
2026-04-30 13:01 33.43948 -112.01146 1135 ft 10 kts 332°
2026-04-30 13:01 33.43974 -112.01274 1133 ft 19 kts 270°
2026-04-30 13:01 33.43974 -112.01428 1133 ft 18 kts 270°
2026-04-30 13:02 33.43975 -112.01572 1131 ft 16 kts 271°
2026-04-30 13:02 33.43986 -112.01690 1134 ft 12 kts 319°
2026-04-30 13:02 33.44018 -112.01707 1133 ft 0 kts 347°
2026-04-30 13:03 33.44039 -112.01711 1131 ft 13 kts 354°
2026-04-30 13:03 33.44086 -112.01627 1131 ft 17 kts 89°
2026-04-30 13:03 33.44088 -112.01242 1132 ft 80 kts 91°
2026-04-30 13:03 33.44086 -112.00332 1131 ft 136 kts 89°
2026-04-30 13:04 33.44074 -111.98987 1387 ft 173 kts 92°
2026-04-30 13:04 33.44026 -111.97569 2286 ft 173 kts 93°
2026-04-30 13:04 33.43959 -111.96114 2886 ft 180 kts 94°
2026-04-30 13:04 33.43878 -111.94521 3143 ft 202 kts 94°
2026-04-30 13:05 33.43782 -111.92739 3401 ft 227 kts 94°
2026-04-30 13:05 33.43670 -111.90755 3755 ft 251 kts 94°
2026-04-30 13:05 33.43567 -111.88579 4212 ft 270 kts 88°
2026-04-30 13:06 33.45581 -111.84996 5769 ft 277 kts 20°
2026-04-30 13:06 33.47471 -111.84545 6606 ft 279 kts
2026-04-30 13:06 33.49430 -111.84546 7411 ft 283 kts 357°
2026-04-30 13:06 33.51387 -111.84644 8193 ft 287 kts 357°
2026-04-30 13:07 33.53433 -111.84692 8755 ft 292 kts 359°
2026-04-30 13:07 33.55440 -111.84646 8903 ft 292 kts
2026-04-30 13:07 33.57471 -111.84514 8931 ft 292 kts
2026-04-30 13:07 33.59498 -111.84322 8934 ft 292 kts
2026-04-30 13:08 33.61521 -111.84099 8934 ft 292 kts
2026-04-30 13:08 33.63544 -111.83863 8934 ft 292 kts
2026-04-30 13:08 33.65556 -111.83540 8935 ft 293 kts 13°
2026-04-30 13:08 33.67539 -111.82879 9517 ft 297 kts 14°
2026-04-30 13:09 33.68861 -111.82443 10094 ft 298 kts 14°
2026-04-30 13:09 33.70922 -111.81776 10482 ft 317 kts 14°
2026-04-30 13:09 33.73132 -111.81071 10692 ft 341 kts 13°
2026-04-30 13:09 33.75496 -111.80317 10864 ft 360 kts 13°
2026-04-30 13:10 33.77946 -111.79494 11440 ft 368 kts 18°
2026-04-30 13:10 33.80298 -111.78215 12069 ft 375 kts 28°
2026-04-30 13:10 33.82458 -111.76407 12683 ft 382 kts 36°
2026-04-30 13:10 33.84580 -111.74449 13304 ft 387 kts 36°
2026-04-30 13:11 33.86733 -111.72467 13881 ft 392 kts 35°
2026-04-30 13:11 33.88916 -111.70462 14444 ft 397 kts 35°
2026-04-30 13:11 33.91123 -111.68434 14994 ft 401 kts 35°
2026-04-30 13:11 33.93323 -111.66408 15526 ft 405 kts 35°
2026-04-30 13:12 33.95600 -111.64307 16073 ft 410 kts 35°
2026-04-30 13:12 33.97876 -111.62208 16601 ft 414 kts 35°
2026-04-30 13:12 34.00152 -111.60129 17137 ft 417 kts 32°
2026-04-30 13:13 34.05076 -111.56323 18147 ft 424 kts 29°
2026-04-30 13:13 34.07580 -111.54405 18648 ft 428 kts 29°
2026-04-30 13:13 34.12653 -111.50507 19563 ft 436 kts 29°
2026-04-30 13:14 34.15222 -111.48529 20011 ft 440 kts 29°
2026-04-30 13:14 34.17813 -111.46536 20443 ft 443 kts 28°
2026-04-30 13:14 34.23056 -111.42498 21281 ft 450 kts 28°
2026-04-30 13:15 34.25708 -111.40453 21692 ft 454 kts 28°
2026-04-30 13:15 34.31073 -111.36316 22484 ft 461 kts 28°
2026-04-30 13:15 34.33783 -111.34223 22899 ft 464 kts 28°
2026-04-30 13:16 34.36491 -111.32125 23453 ft 462 kts 28°
2026-04-30 13:16 34.39200 -111.30024 23843 ft 463 kts 28°
2026-04-30 13:16 34.41923 -111.27916 24147 ft 466 kts 28°
2026-04-30 13:17 34.47420 -111.23662 24645 ft 472 kts 28°
2026-04-30 13:17 34.50193 -111.21509 24938 ft 475 kts 28°
2026-04-30 13:17 34.55754 -111.17182 25509 ft 481 kts 28°
2026-04-30 13:18 34.58582 -111.14978 25792 ft 484 kts 28°
2026-04-30 13:18 34.64035 -111.10072 26418 ft 495 kts 40°
2026-04-30 13:18 34.66494 -111.07103 26707 ft 498 kts 41°
2026-04-30 13:19 34.68953 -111.04129 26953 ft 501 kts 41°
2026-04-30 13:19 34.71427 -111.01134 27192 ft 503 kts 41°
2026-04-30 13:19 34.73921 -110.98113 27421 ft 506 kts 41°
2026-04-30 13:19 34.76390 -110.95122 27673 ft 509 kts 41°
2026-04-30 13:20 34.78907 -110.92073 27921 ft 512 kts 41°
2026-04-30 13:20 34.81439 -110.89007 28157 ft 515 kts 41°
2026-04-30 13:20 34.84015 -110.85883 28405 ft 518 kts 41°
2026-04-30 13:20 34.86537 -110.82817 28640 ft 521 kts 41°
2026-04-30 13:21 34.89105 -110.79685 28941 ft 522 kts 40°
2026-04-30 13:21 34.91670 -110.76553 29273 ft 522 kts 40°
2026-04-30 13:21 34.94238 -110.73416 29633 ft 523 kts 40°
2026-04-30 13:22 34.99384 -110.67124 30256 ft 524 kts 39°
2026-04-30 13:22 35.01961 -110.63976 30514 ft 525 kts 39°
2026-04-30 13:22 35.07123 -110.57672 30933 ft 525 kts 39°
2026-04-30 13:23 35.09702 -110.54509 31206 ft 526 kts 39°
2026-04-30 13:23 35.14860 -110.48164 31762 ft 526 kts 39°
2026-04-30 13:24 35.19997 -110.41844 32319 ft 527 kts 39°
2026-04-30 13:24 35.25201 -110.35435 32909 ft 528 kts 39°
2026-04-30 13:25 35.30374 -110.29043 33443 ft 529 kts 39°
2026-04-30 13:25 35.35518 -110.22682 33983 ft 529 kts 39°
2026-04-30 13:26 35.43283 -110.13047 34695 ft 530 kts 39°
2026-04-30 13:26 35.48457 -110.06611 35145 ft 530 kts 39°
2026-04-30 13:27 35.53627 -110.00167 35624 ft 530 kts 39°
2026-04-30 13:28 35.61378 -109.90478 36201 ft 530 kts 39°
2026-04-30 13:28 35.66642 -109.84176 36588 ft 522 kts 30°
2026-04-30 13:28 35.69592 -109.81654 36779 ft 510 kts 20°
2026-04-30 13:29 35.75946 -109.78405 36957 ft 487 kts
2026-04-30 13:29 35.82508 -109.77115 36974 ft 474 kts 354°
2026-04-30 13:31 35.98886 -109.74562 36956 ft 474 kts 355°
2026-04-30 13:32 36.15270 -109.72066 36991 ft 474 kts 355°
2026-04-30 13:33 36.28327 -109.70039 36989 ft 475 kts 355°
2026-04-30 13:34 36.38153 -109.68515 37003 ft 474 kts 355°
2026-04-30 13:35 36.51245 -109.66480 36989 ft 474 kts 355°
2026-04-30 13:36 36.64244 -109.64451 36977 ft 469 kts 355°
2026-04-30 13:36 36.73964 -109.62940 36979 ft 469 kts 355°
2026-04-30 13:37 36.83690 -109.61425 36986 ft 470 kts 355°
2026-04-30 13:38 36.93386 -109.59900 36990 ft 470 kts 355°
2026-04-30 13:39 37.06358 -109.57860 37028 ft 469 kts 356°
2026-04-30 13:40 37.16059 -109.56321 37019 ft 468 kts 356°
2026-04-30 13:40 37.22515 -109.55295 37018 ft 467 kts 356°
2026-04-30 13:41 37.28953 -109.54276 37030 ft 464 kts 357°
2026-04-30 13:41 37.35358 -109.53258 37053 ft 464 kts 356°
2026-04-30 13:42 37.41771 -109.52241 37089 ft 464 kts 357°
2026-04-30 13:42 37.51334 -109.50712 37120 ft 463 kts 357°
2026-04-30 13:43 37.57712 -109.49693 37117 ft 462 kts 357°
2026-04-30 13:43 37.64101 -109.48677 37119 ft 463 kts 357°
2026-04-30 13:44 37.70501 -109.47653 37106 ft 463 kts 357°
2026-04-30 13:44 37.76898 -109.46587 37086 ft 467 kts
2026-04-30 13:45 37.83185 -109.43904 37061 ft 492 kts 19°
2026-04-30 13:45 37.86170 -109.41693 37045 ft 498 kts 22°
2026-04-30 13:46 37.92112 -109.37152 37020 ft 499 kts 22°
2026-04-30 13:46 37.98062 -109.32621 37054 ft 499 kts 22°
2026-04-30 13:47 38.04014 -109.28074 37044 ft 499 kts 22°
2026-04-30 13:47 38.09964 -109.23513 37040 ft 500 kts 22°
2026-04-30 13:48 38.15826 -109.18820 37029 ft 503 kts 25°
2026-04-30 13:48 38.21625 -109.13825 37100 ft 504 kts 25°
2026-04-30 13:49 38.27388 -109.08815 36997 ft 499 kts 25°
2026-04-30 13:49 38.33154 -109.03896 36992 ft 499 kts 24°
2026-04-30 13:50 38.38953 -108.99002 36994 ft 500 kts 24°
2026-04-30 13:50 38.47668 -108.91601 37054 ft 502 kts 24°
2026-04-30 13:51 38.53473 -108.86630 37035 ft 503 kts 25°
2026-04-30 13:51 38.59279 -108.81642 37031 ft 503 kts 25°
2026-04-30 13:52 38.65087 -108.76650 37046 ft 503 kts 25°
2026-04-30 13:52 38.70904 -108.71660 37031 ft 504 kts 25°
2026-04-30 13:53 38.76565 -108.66413 37009 ft 513 kts 35°
2026-04-30 13:53 38.81169 -108.59268 37021 ft 529 kts 54°
2026-04-30 13:54 38.82829 -108.55035 37030 ft 535 kts 65°
2026-04-30 13:54 38.84152 -108.50568 37035 ft 536 kts 66°
2026-04-30 13:54 38.86789 -108.41580 36286 ft 543 kts 66°
2026-04-30 13:55 38.88126 -108.37029 35421 ft 547 kts 66°
2026-04-30 13:55 38.89482 -108.32422 34476 ft 554 kts 67°
2026-04-30 13:55 38.90840 -108.27805 33840 ft 552 kts 67°
2026-04-30 13:55 38.92190 -108.23197 32941 ft 548 kts 68°
2026-04-30 13:56 38.93524 -108.18632 31700 ft 544 kts 68°
2026-04-30 13:56 38.94837 -108.14113 30541 ft 536 kts 68°
2026-04-30 13:56 38.96125 -108.09671 29218 ft 527 kts 68°
2026-04-30 13:56 38.97398 -108.05272 27632 ft 522 kts 68°
2026-04-30 13:57 38.98647 -108.00946 26750 ft 509 kts 68°
2026-04-30 13:57 38.99864 -107.96732 26476 ft 499 kts 68°
2026-04-30 13:57 39.01067 -107.92571 26020 ft 494 kts 68°
2026-04-30 13:57 39.02255 -107.88450 25363 ft 488 kts 68°
2026-04-30 13:58 39.03424 -107.84384 24758 ft 483 kts 68°
2026-04-30 13:58 39.05722 -107.76368 23492 ft 473 kts 69°
2026-04-30 13:58 39.06857 -107.72415 22857 ft 468 kts 69°
2026-04-30 13:59 39.07978 -107.68514 22279 ft 462 kts 69°
2026-04-30 13:59 39.08710 -107.65957 21878 ft 458 kts 69°
2026-04-30 13:59 39.10155 -107.60893 21115 ft 451 kts 69°
2026-04-30 13:59 39.11225 -107.57152 20861 ft 438 kts 69°
2026-04-30 14:00 39.11933 -107.54707 20772 ft 427 kts 68°
2026-04-30 14:00 39.14247 -107.46835 20470 ft 388 kts 68°
2026-04-30 14:00 39.14889 -107.44658 20403 ft 380 kts 68°
2026-04-30 14:01 39.15730 -107.41476 20275 ft 369 kts 76°
2026-04-30 14:01 39.16108 -107.38244 20056 ft 362 kts 88°
2026-04-30 14:01 39.16093 -107.35026 19757 ft 358 kts 91°
2026-04-30 14:01 39.16045 -107.31828 19571 ft 356 kts 91°
2026-04-30 14:02 39.15999 -107.28643 19386 ft 355 kts 91°
2026-04-30 14:02 39.15953 -107.25476 19199 ft 353 kts 91°
2026-04-30 14:02 39.15907 -107.22362 19019 ft 352 kts 91°
2026-04-30 14:02 39.15860 -107.19218 18834 ft 350 kts 91°
2026-04-30 14:03 39.15815 -107.16091 18653 ft 348 kts 91°
2026-04-30 14:03 39.15773 -107.12980 18462 ft 347 kts 91°
2026-04-30 14:03 39.15731 -107.09875 18201 ft 344 kts 91°
2026-04-30 14:03 39.15687 -107.06789 18014 ft 343 kts 91°
2026-04-30 14:04 39.15638 -107.03728 17834 ft 342 kts 91°
2026-04-30 14:04 39.15587 -107.00664 17667 ft 341 kts 91°
2026-04-30 14:04 39.15536 -106.97611 17475 ft 340 kts 91°
2026-04-30 14:04 39.15487 -106.94569 17302 ft 338 kts 91°
2026-04-30 14:05 39.15462 -106.91587 17154 ft 328 kts 86°
2026-04-30 14:05 39.15841 -106.88740 17016 ft 318 kts 71°
2026-04-30 14:05 39.16727 -106.86161 16901 ft 312 kts 56°
2026-04-30 14:05 39.18023 -106.83968 16744 ft 306 kts 47°
2026-04-30 14:06 39.19406 -106.81891 16570 ft 304 kts 47°
2026-04-30 14:06 39.22118 -106.77775 16186 ft 302 kts 48°
2026-04-30 14:07 39.24818 -106.73653 15808 ft 299 kts 48°
2026-04-30 14:07 39.26159 -106.71611 15619 ft 298 kts 48°
2026-04-30 14:07 39.27498 -106.69575 15428 ft 297 kts 47°
2026-04-30 14:08 39.30851 -106.66874 15070 ft 280 kts
2026-04-30 14:08 39.32766 -106.66778 14806 ft 274 kts 349°
2026-04-30 14:08 39.36301 -106.68351 14321 ft 267 kts 336°
2026-04-30 14:09 39.38025 -106.69233 14089 ft 263 kts 334°
2026-04-30 14:09 39.39461 -106.70606 14035 ft 257 kts 312°
2026-04-30 14:09 39.41902 -106.74017 14036 ft 257 kts 311°
2026-04-30 14:10 39.43081 -106.75683 14059 ft 247 kts 311°
2026-04-30 14:10 39.44230 -106.77310 14065 ft 243 kts 311°
2026-04-30 14:10 39.45366 -106.78922 14067 ft 242 kts 311°
2026-04-30 14:10 39.46499 -106.80529 14067 ft 241 kts 311°
2026-04-30 14:11 39.47631 -106.82133 14068 ft 241 kts 311°
2026-04-30 14:11 39.48750 -106.83716 14068 ft 240 kts 311°
2026-04-30 14:11 39.49759 -106.85329 14082 ft 221 kts 300°
2026-04-30 14:11 39.50350 -106.87093 14087 ft 209 kts 284°
2026-04-30 14:12 39.50593 -106.88912 14132 ft 203 kts 274°
2026-04-30 14:12 39.50537 -106.90738 14134 ft 203 kts 262°
2026-04-30 14:12 39.50187 -106.92499 14135 ft 203 kts 250°
2026-04-30 14:12 39.49567 -106.94112 14037 ft 196 kts 238°
2026-04-30 14:13 39.48744 -106.95500 13950 ft 194 kts 232°
2026-04-30 14:13 39.47802 -106.96739 13865 ft 195 kts 218°
2026-04-30 14:13 39.46611 -106.97548 13774 ft 191 kts 199°
2026-04-30 14:13 39.45328 -106.97764 13717 ft 187 kts 169°
2026-04-30 14:14 39.44093 -106.97276 13467 ft 188 kts 163°
2026-04-30 14:14 39.42857 -106.96710 13202 ft 181 kts 162°
2026-04-30 14:14 39.41691 -106.96158 12972 ft 177 kts 161°
2026-04-30 14:14 39.40546 -106.95611 12741 ft 175 kts 161°
2026-04-30 14:15 39.39412 -106.95067 12499 ft 173 kts 161°
2026-04-30 14:15 39.38287 -106.94528 12263 ft 173 kts 161°
2026-04-30 14:15 39.37154 -106.93985 11837 ft 173 kts 161°
2026-04-30 14:15 39.36051 -106.93456 11488 ft 171 kts 161°
2026-04-30 14:16 39.34941 -106.92924 11146 ft 169 kts 161°
2026-04-30 14:16 39.33850 -106.92401 10804 ft 166 kts 161°
2026-04-30 14:16 39.32774 -106.91886 10469 ft 165 kts 160°
2026-04-30 14:16 39.31703 -106.91373 10137 ft 163 kts 160°
2026-04-30 14:17 39.30646 -106.90867 9795 ft 160 kts 160°
2026-04-30 14:17 39.29608 -106.90371 9456 ft 159 kts 160°
2026-04-30 14:17 39.28578 -106.89875 9138 ft 157 kts 160°
2026-04-30 14:17 39.27564 -106.89356 8902 ft 156 kts 158°
2026-04-30 14:18 39.26559 -106.88824 8653 ft 156 kts 159°
2026-04-30 14:18 39.25546 -106.88337 8388 ft 155 kts 161°
2026-04-30 14:18 39.23508 -106.87447 7768 ft 154 kts 159°
2026-04-30 14:19 39.21957 -106.86705 7781 ft 24 kts 163°
2026-04-30 14:19 39.21906 -106.86673 7783 ft 3 kts 138°
2026-04-30 14:19 39.21900 -106.86665 7782 ft 5 kts 132°
2026-04-30 14:20 39.21896 -106.86571 7787 ft 13 kts
2026-04-30 14:20 39.22011 -106.86614 7772 ft 23 kts 341°
2026-04-30 14:20 39.22277 -106.86697 7754 ft 0 kts 32°